period_start,C,m1,H,J0,J1,J2,J3,J4,J5,JA,JB,JC,JD,JJ,JK,JN,#
2018-08-30 00:43:04,-3333.30,0.00,0.00,29.14,33.56,31.70,11.83,41.76,1012.16,1803.12,3066.47,2740.96,3158.45,526.67,510.37,0.00,0000 0000 0000 0000 000000
2018-08-30 00:48:05,0.03,0.02,0.00,29.08,33.37,32.89,13.45,47.33,1012.25,2000.62,3381.07,3030.87,3490.07,599.47,581.06,0.05,0000 0000 0000 0000 000000
2018-08-30 00:53:07,0.16,0.06,0.00,29.06,33.20,33.34,13.37,47.19,1012.27,2000.84,3361.91,3021.07,3475.36,599.59,581.19,0.11,0000 0000 0000 0000 000000
2018-08-30 00:58:08,0.32,0.10,0.00,29.04,33.07,33.90,13.51,47.15,1012.26,2000.99,3344.28,3011.98,3461.89,599.90,581.53,0.16,0000 0000 0000 0000 000000
2018-08-30 01:03:10,0.50,0.13,0.00,29.03,32.96,34.32,13.59,47.08,1012.24,2001.05,3327.39,3003.42,3449.01,600.19,581.70,0.21,0000 0000 0000 0000 000000
2018-08-30 01:08:12,0.66,0.17,0.00,29.06,32.88,34.58,13.53,47.01,1012.23,2001.80,3311.40,2995.30,3436.94,599.89,581.46,0.26,0000 0000 0000 0000 000000
2018-08-30 01:13:14,0.66,0.20,0.00,29.10,32.81,34.71,13.57,47.16,1012.24,2001.99,3296.06,2987.49,3425.43,600.21,581.69,0.31,0000 0000 0000 0000 000000
2018-08-30 01:18:15,0.60,0.23,0.00,29.14,32.76,34.87,13.56,46.96,1012.23,2002.06,3281.64,2980.05,3414.56,599.97,581.36,0.36,0000 0000 0000 0000 000000
2018-08-30 01:23:17,0.61,0.26,0.00,29.17,32.72,34.94,13.69,47.03,1012.22,2002.46,3268.16,2972.97,3404.43,600.17,581.47,0.41,0000 0000 0000 0000 000000
2018-08-30 01:28:19,0.54,0.29,0.17,29.22,32.70,34.89,13.53,46.81,1012.22,2002.86,3255.71,2966.22,3394.84,599.59,580.95,0.46,0000 0000 0000 0000 000000
2018-08-30 01:33:20,0.50,0.32,1.00,29.26,32.67,34.86,13.57,46.97,1012.22,2002.97,3243.87,2960.06,3386.13,600.20,581.32,0.51,0000 0000 0000 0000 000000
2018-08-30 01:38:22,0.49,0.34,1.00,29.30,32.67,34.88,13.52,46.86,1012.21,2002.99,3232.28,2953.90,3377.34,599.64,580.77,0.56,0000 0000 0000 0000 000000
2018-08-30 01:43:24,0.47,0.37,1.00,29.34,32.67,34.91,13.54,46.97,1012.20,2002.99,3221.09,2948.04,3368.93,599.90,580.95,0.61,0000 0000 0000 0000 000000
2018-08-30 01:48:26,0.45,0.39,1.00,29.37,32.67,34.94,13.58,46.74,1012.07,2003.00,3210.47,2942.50,3360.92,600.02,580.89,0.66,0000 0000 0000 0000 000000
2018-08-30 01:53:28,0.44,0.41,1.00,29.41,32.69,34.98,13.55,46.65,1011.97,2003.01,3200.33,2937.07,3353.14,600.04,580.83,0.71,0000 0000 0000 0000 000000
2018-08-30 01:58:30,0.41,0.44,0.80,29.44,32.70,35.01,13.48,46.70,1012.00,2003.00,3190.67,2931.92,3345.81,600.09,580.72,0.76,0000 0000 0000 0000 000000
2018-08-30 02:03:32,0.40,0.46,0.00,29.46,32.72,35.05,13.63,46.78,1012.00,2003.00,3181.26,2926.87,3338.71,600.38,581.02,0.81,0000 0000 0000 0000 000000
2018-08-30 02:08:34,0.39,0.48,0.00,29.49,32.74,35.08,13.56,46.65,1011.91,2003.00,3172.13,2921.98,3331.82,599.97,580.55,0.86,0000 0000 0000 0000 000000
2018-08-30 02:13:35,0.40,0.50,0.00,29.52,32.76,35.12,13.49,46.60,1011.88,2003.00,3162.99,2916.99,3324.97,600.00,580.44,0.91,0000 0000 0000 0000 000000
2018-08-30 02:18:37,0.41,0.52,0.00,29.54,32.78,35.15,13.45,46.70,1011.81,2003.00,3153.77,2911.82,3317.83,599.75,580.17,0.96,0000 0000 0000 0000 000000
2018-08-30 02:23:39,0.41,0.54,0.00,29.56,32.80,35.18,13.52,46.63,1011.78,2003.00,3144.55,2906.76,3310.84,600.01,580.38,1.01,0000 0000 0000 0000 000000
2018-08-30 02:28:41,0.40,0.56,0.00,29.59,32.83,35.22,13.55,46.67,1011.76,2002.96,3135.51,2901.73,3303.91,600.21,580.49,1.06,0000 0000 0000 0000 000000
2018-08-30 02:33:43,0.40,0.58,0.00,29.60,32.86,35.25,13.58,46.85,1011.74,2002.87,3126.39,2896.70,3296.92,599.90,580.18,1.11,0000 0000 0000 0000 000000
2018-08-30 02:38:44,0.39,0.60,0.00,29.62,32.88,35.28,13.53,46.91,1011.74,2002.69,3117.15,2891.56,3289.88,599.89,580.06,1.16,0000 0000 0000 0000 000000
2018-08-30 02:43:46,0.39,0.62,0.00,29.64,32.91,35.31,13.45,46.95,1011.74,2002.23,3107.60,2886.18,3282.64,600.01,580.20,1.21,0000 0000 0000 0000 000000
2018-08-30 02:48:48,0.42,0.64,0.00,29.65,32.93,35.33,13.53,46.85,1011.73,2002.03,3098.11,2880.90,3275.49,600.06,580.25,1.26,0000 0000 0000 0000 000000
2018-08-30 02:53:49,0.41,0.66,0.00,29.66,32.95,35.37,13.52,46.84,1011.73,2002.00,3088.86,2875.87,3268.53,600.09,580.25,1.31,0000 0000 0000 0000 000000
2018-08-30 02:58:51,0.41,0.68,0.00,29.67,32.97,35.40,13.57,46.88,1011.73,2002.00,3079.81,2870.77,3261.79,600.25,580.37,1.36,0000 0000 0000 0000 000000
2018-08-30 03:03:53,0.40,0.70,0.00,29.67,33.00,35.42,13.55,46.93,1011.72,2002.00,3070.92,2865.71,3255.04,600.03,580.19,1.41,0000 0000 0000 0000 000000
2018-08-30 03:08:54,0.39,0.72,0.00,29.68,33.02,35.44,13.55,46.92,1011.67,2001.99,3062.39,2860.86,3248.53,600.23,580.27,1.46,0000 0000 0000 0000 000000
2018-08-30 06:01:22,-3333.30,0.00,0.00,26.19,29.27,26.98,13.21,46.67,1008.82,2021.35,3377.49,3078.65,3544.75,588.21,573.90,0.01,0000 0000 0000 0000 000000
2018-08-30 06:06:23,0.05,0.02,0.00,26.22,29.10,28.28,13.49,47.10,1009.17,2019.03,3356.41,3065.00,3527.94,599.88,585.18,0.06,0000 0000 0000 0000 000000
2018-08-30 06:11:24,0.14,0.05,0.00,26.30,28.98,29.13,13.51,47.26,1009.29,2019.07,3344.33,3058.08,3517.93,599.78,585.01,0.11,0000 0000 0000 0000 000000
2018-08-30 06:16:25,0.27,0.07,0.00,26.47,28.89,29.86,13.59,47.42,1009.30,2019.81,3333.22,3051.82,3508.81,600.06,584.78,0.16,0000 0000 0000 0000 000000
2018-08-30 06:21:27,0.36,0.10,0.00,26.73,28.84,30.40,13.55,47.30,1009.52,2019.99,3323.03,3046.41,3500.66,599.96,584.50,0.21,0000 0000 0000 0000 000000
2018-08-30 06:26:28,0.42,0.12,0.00,26.98,28.82,30.67,13.50,47.45,1009.73,2020.00,3312.88,3040.99,3492.54,600.16,584.31,0.26,0000 0000 0000 0000 000000
2018-08-30 06:31:29,0.43,0.14,0.00,27.17,28.85,30.85,13.54,47.39,1009.71,2020.04,3302.88,3035.66,3484.63,599.98,583.75,0.31,0000 0000 0000 0000 000000
2018-08-30 06:36:31,0.42,0.16,0.00,27.34,28.89,31.01,13.49,47.40,1009.74,2020.03,3292.84,3030.25,3476.65,599.92,583.39,0.36,0000 0000 0000 0000 000000
2018-08-30 06:41:32,0.43,0.18,0.00,27.50,28.96,31.21,13.59,47.44,1009.70,2020.02,3282.82,3024.76,3468.72,600.37,583.54,0.41,0000 0000 0000 0000 000000
2018-08-30 06:46:33,0.41,0.20,0.00,27.62,29.04,31.42,13.50,47.24,1009.72,2020.00,3272.96,3019.31,3460.90,599.74,582.59,0.46,0000 0000 0000 0000 000000
2018-08-30 06:51:35,0.41,0.22,0.00,27.73,29.13,31.60,13.46,47.27,1009.71,2020.00,3263.39,3013.92,3453.24,599.72,582.43,0.51,0000 0000 0000 0000 000000
2018-08-30 06:56:36,0.40,0.24,0.00,27.83,29.22,31.78,13.51,47.23,1009.75,2019.95,3253.94,3008.63,3445.62,599.72,582.24,0.56,0000 0000 0000 0000 000000
2018-08-30 07:01:37,0.33,0.26,0.00,27.92,29.33,31.94,13.55,47.31,1009.77,2019.32,3244.50,3003.45,3438.08,600.12,582.48,0.61,0000 0000 0000 0000 000000
2018-08-30 07:06:39,0.42,0.28,0.00,28.00,29.44,32.10,13.50,47.18,1009.77,2019.01,3234.78,2997.73,3430.16,600.43,582.66,0.66,0000 0000 0000 0000 000000
2018-08-30 07:11:40,0.40,0.30,0.00,28.08,29.55,32.25,13.53,46.90,1009.78,2018.87,3225.40,2992.33,3422.62,600.07,582.17,0.71,0000 0000 0000 0000 000000
2018-08-30 07:16:41,0.34,0.32,0.00,28.15,29.66,32.40,13.52,46.96,1009.78,2018.12,3216.03,2986.98,3415.06,600.34,582.19,0.76,0000 0000 0000 0000 000000
2018-08-30 07:21:43,0.43,0.34,0.00,28.22,29.77,32.53,13.52,46.77,1009.78,2017.98,3206.50,2981.42,3407.39,600.12,581.96,0.81,0000 0000 0000 0000 000000
2018-08-30 07:26:44,0.39,0.36,0.00,28.28,29.88,32.65,13.51,46.77,1009.79,2017.34,3196.22,2974.99,3398.88,599.93,581.60,0.86,0000 0000 0000 0000 000000
2018-08-30 07:31:45,0.44,0.38,0.00,28.34,30.00,32.78,13.45,46.63,1009.79,2016.98,3186.16,2968.94,3390.78,599.85,581.43,0.91,0000 0000 0000 0000 000000
2018-08-30 07:36:46,0.36,0.40,0.00,28.40,30.11,32.90,13.50,46.59,1009.78,2016.46,3176.39,2963.21,3382.97,599.91,581.40,0.96,0000 0000 0000 0000 000000
2018-08-30 07:41:48,0.43,0.42,0.00,28.45,30.23,33.02,13.50,46.76,1009.79,2016.00,3166.54,2957.39,3375.08,600.09,581.40,1.01,0000 0000 0000 0000 000000
2018-08-30 07:46:49,0.41,0.45,0.00,28.50,30.34,33.11,13.49,46.77,1009.79,2015.45,3156.11,2951.27,3366.71,600.14,581.31,1.06,0000 0000 0000 0000 000000
2018-08-30 07:51:50,1.01,0.48,0.00,28.54,30.44,33.20,13.53,46.75,1009.78,2015.01,3140.10,2936.82,3349.60,599.98,581.07,1.11,0000 0000 0000 0000 000000
2018-08-30 07:56:51,0.66,0.53,0.00,28.58,30.55,33.31,13.52,46.88,1009.78,2014.44,3124.86,2923.47,3333.86,600.02,581.02,1.16,0000 0000 0000 0000 000000
2018-08-30 08:01:53,1.37,0.56,0.87,28.61,30.65,33.39,13.52,46.94,1009.78,2014.00,3110.64,2913.37,3319.47,600.06,581.03,1.21,0000 0000 0000 0000 000000
2018-08-30 08:06:54,0.11,0.60,1.00,28.65,30.74,33.47,13.50,46.94,1009.78,2013.50,3100.11,2907.61,3311.11,599.93,580.87,1.26,0000 0000 0000 0000 000000
2018-08-30 08:11:55,0.46,0.61,1.00,28.69,30.84,33.56,13.49,46.95,1009.78,2013.01,3089.91,2902.03,3303.31,599.98,580.85,1.32,0000 0000 0000 0000 000000
2018-08-30 08:16:56,0.44,0.63,1.00,28.72,30.93,33.63,13.44,46.78,1009.79,2012.61,3079.19,2895.74,3294.79,599.72,580.64,1.37,0000 0000 0000 0000 000000
2018-08-30 08:21:57,0.48,0.66,1.00,28.75,31.02,33.71,13.43,46.87,1009.79,2012.02,3068.45,2889.27,3286.18,599.88,580.62,1.42,0000 0000 0000 0000 000000
2018-08-30 08:26:59,0.53,0.68,1.00,28.78,31.10,33.78,13.53,47.02,1009.79,2011.95,3057.30,2882.54,3277.20,599.98,580.68,1.47,0000 0000 0000 0000 000000
2018-08-30 08:32:00,0.50,0.71,1.00,28.81,31.18,33.84,13.48,47.03,1009.78,2011.21,3045.21,2875.45,3267.54,599.93,580.47,1.52,0000 0000 0000 0000 000000
2018-08-30 08:37:01,0.62,0.74,1.00,28.85,31.26,33.90,13.57,47.08,1009.78,2010.99,3032.32,2867.60,3257.38,600.00,580.56,1.57,0000 0000 0000 0000 000000
2018-08-30 08:42:03,0.59,0.77,1.00,28.87,31.34,33.97,13.42,47.08,1009.78,2010.56,3018.90,2859.52,3246.68,599.76,580.19,1.62,0000 0000 0000 0000 000000
2018-08-30 08:47:04,0.65,0.80,1.00,28.88,31.40,34.03,13.50,47.08,1009.78,2010.03,3005.13,2851.10,3235.67,600.15,580.69,1.67,0000 0000 0000 0000 000000
2018-08-30 08:52:05,0.71,0.84,1.00,28.90,31.47,34.09,13.52,47.17,1009.78,2009.94,2990.60,2842.24,3224.03,599.99,580.40,1.72,0000 0000 0000 0000 000000
2018-08-30 08:57:07,0.66,0.87,1.00,28.92,31.53,34.13,13.54,47.22,1009.78,2009.22,2975.50,2833.19,3212.09,600.13,580.53,1.77,0000 0000 0000 0000 000000
2018-08-30 09:02:08,0.77,0.91,1.00,28.94,31.60,34.19,13.59,47.18,1009.78,2009.00,2959.94,2823.73,3199.85,600.20,580.62,1.82,0000 0000 0000 0000 000000
2018-08-30 09:07:10,0.76,0.94,1.00,28.95,31.66,34.23,13.58,47.19,1009.79,2008.88,2944.34,2814.33,3187.53,599.92,580.33,1.87,0000 0000 0000 0000 000000
2018-08-30 09:12:11,0.72,0.98,1.00,28.96,31.72,34.27,13.52,47.22,1009.81,2008.18,2928.53,2804.76,3175.00,599.94,580.32,1.92,0000 0000 0000 0000 000000
2018-08-30 09:17:12,0.81,1.02,1.00,28.97,31.77,34.32,13.53,47.29,1009.82,2008.00,2912.39,2794.95,3162.26,599.69,579.99,1.97,0000 0000 0000 0000 000000
2018-08-30 09:22:13,0.81,1.06,1.00,29.00,31.83,34.37,13.55,47.31,1009.81,2007.97,2896.26,2785.14,3149.62,599.87,580.17,2.02,0000 0000 0000 0000 000000
2018-08-30 09:27:15,0.75,1.10,1.00,29.00,31.88,34.41,13.57,47.30,1009.82,2007.36,2880.05,2775.20,3136.91,600.10,580.39,2.07,0000 0000 0000 0000 000000
2018-08-30 09:32:16,0.81,1.14,1.00,29.02,31.92,34.45,13.52,47.40,1009.80,2007.02,2863.95,2765.38,3124.32,600.22,580.28,2.12,0000 0000 0000 0000 000000
2018-08-30 09:37:17,0.85,1.18,1.00,29.04,31.97,34.48,13.52,47.52,1009.80,2006.99,2847.50,2755.37,3111.41,600.12,580.22,2.17,0000 0000 0000 0000 000000
2018-08-30 09:42:19,0.82,1.22,1.00,29.05,32.01,34.52,13.42,47.54,1009.79,2006.74,2830.94,2745.40,3098.45,599.71,579.91,2.22,0000 0000 0000 0000 000000
2018-08-30 09:47:20,0.83,1.26,1.00,29.05,32.06,34.56,13.53,47.77,1009.79,2006.09,2814.31,2735.08,3085.26,600.12,580.29,2.27,0000 0000 0000 0000 000000
2018-08-30 09:52:21,0.89,1.31,1.00,29.07,32.10,34.59,13.56,47.87,1009.79,2006.00,2797.47,2724.68,3072.05,600.13,580.13,2.32,0000 0000 0000 0000 000000
2018-08-30 09:57:23,0.91,1.35,1.00,29.07,32.13,34.63,13.54,47.89,1009.79,2005.99,2780.34,2714.16,3058.74,600.15,580.35,2.37,0000 0000 0000 0000 000000
2018-08-30 10:02:24,0.91,1.40,1.00,29.07,32.17,34.66,13.55,48.01,1009.80,2005.87,2763.15,2703.58,3045.26,599.90,580.04,2.42,0000 0000 0000 0000 000000
2018-08-30 10:07:25,0.88,1.44,1.00,29.10,32.21,34.69,13.51,48.08,1009.83,2005.35,2745.89,2692.87,3031.68,600.08,580.20,2.47,0000 0000 0000 0000 000000
2018-08-30 10:12:26,0.94,1.49,1.00,29.10,32.24,34.72,13.52,48.10,1009.94,2005.03,2728.22,2682.20,3017.93,599.95,580.30,2.52,0000 0000 0000 0000 000000
2018-08-30 10:17:28,1.01,1.55,1.00,29.10,32.27,34.76,13.54,48.24,1009.82,2005.00,2709.84,2671.00,3003.91,600.23,580.36,2.57,0000 0000 0000 0000 000000
2018-08-30 10:22:29,1.04,1.59,1.00,29.11,32.30,34.78,13.51,48.13,1009.80,2004.98,2690.96,2659.50,2989.47,599.96,580.02,2.62,0000 0000 0000 0000 000000
2018-08-30 10:27:30,1.06,1.64,1.00,29.12,32.33,34.80,13.56,48.19,1009.80,2004.86,2671.64,2647.69,2974.56,599.92,579.94,2.67,0000 0000 0000 0000 000000
2018-08-30 10:32:32,1.07,1.70,1.00,29.12,32.36,34.83,13.48,48.30,1009.79,2004.39,2651.57,2635.53,2959.22,599.93,580.00,2.72,0000 0000 0000 0000 000000
2018-08-30 10:37:33,1.14,1.76,1.00,29.15,32.38,34.85,13.61,48.39,1009.78,2004.05,2630.87,2623.04,2943.51,600.26,580.23,2.77,0000 0000 0000 0000 000000
2018-08-30 10:42:35,1.20,1.82,1.00,29.15,32.41,34.88,13.53,48.44,1009.78,2004.00,2609.96,2610.32,2927.49,600.00,579.99,2.82,0000 0000 0000 0000 000000
2018-08-30 10:47:36,1.32,1.88,1.00,29.15,32.43,34.90,13.59,48.59,1009.78,2004.00,2587.68,2596.44,2910.29,600.06,580.15,2.87,0000 0000 0000 0000 000000
2018-08-30 10:52:37,1.39,1.95,1.00,29.16,32.45,34.92,13.55,48.84,1009.78,2003.96,2564.20,2581.79,2892.15,600.08,580.05,2.92,0000 0000 0000 0000 000000
2018-08-30 10:57:38,1.33,2.02,1.00,29.17,32.47,34.94,13.59,48.99,1009.78,2003.69,2540.96,2567.27,2874.31,599.85,579.95,2.97,0000 0000 0000 0000 000000
2018-08-30 11:02:40,1.30,2.08,1.00,29.17,32.50,34.96,13.57,49.17,1009.78,2003.19,2518.42,2553.43,2857.01,600.04,579.96,3.02,0000 0000 0000 0000 000000
2018-08-30 11:07:41,1.29,2.15,1.00,29.17,32.52,34.98,13.55,49.28,1009.78,2003.01,2496.95,2539.89,2840.35,600.10,580.04,3.07,0000 0000 0000 0000 000000
2018-08-30 11:12:42,1.25,2.21,1.00,29.17,32.53,35.00,13.57,49.50,1009.78,2003.00,2476.48,2526.89,2824.40,600.28,580.23,3.12,0000 0000 0000 0000 000000
2018-08-30 11:17:44,1.21,2.27,1.00,29.17,32.55,35.01,13.54,49.59,1009.78,2003.00,2457.11,2514.59,2809.51,600.08,580.02,3.17,0000 0000 0000 0000 000000
2018-08-30 11:22:45,1.23,2.34,1.00,29.18,32.57,35.03,13.60,49.72,1009.78,2002.98,2437.74,2502.28,2794.43,600.17,580.13,3.22,0000 0000 0000 0000 000000
2018-08-30 11:27:46,1.28,2.40,1.00,29.18,32.58,35.05,13.59,49.77,1009.78,2002.95,2417.82,2489.77,2778.92,599.92,579.84,3.27,0000 0000 0000 0000 000000
2018-08-30 11:32:47,1.27,2.46,1.00,29.17,32.60,35.06,13.51,49.88,1009.78,2002.79,2397.61,2476.98,2763.31,599.96,579.90,3.32,0000 0000 0000 0000 000000
2018-08-30 11:37:48,1.31,2.53,1.00,29.17,32.61,35.07,13.57,50.06,1009.78,2002.28,2377.04,2463.89,2747.51,599.97,579.91,3.37,0000 0000 0000 0000 000000
2018-08-30 11:42:50,1.41,2.60,1.00,29.17,32.62,35.09,13.60,50.23,1009.77,2002.10,2355.74,2450.30,2731.02,599.94,579.88,3.42,0000 0000 0000 0000 000000
2018-08-30 11:47:51,1.53,2.67,1.00,29.17,32.64,35.10,13.55,50.34,1009.77,2002.02,2332.99,2435.90,2713.44,600.06,580.01,3.47,0000 0000 0000 0000 000000
2018-08-30 11:52:52,1.61,2.75,1.00,29.18,32.65,35.11,13.57,50.42,1009.77,2002.00,2309.23,2421.08,2695.29,600.22,580.17,3.52,0000 0000 0000 0000 000000
2018-08-30 11:57:53,1.73,2.84,1.00,29.18,32.66,35.12,13.49,50.51,1009.78,2002.00,2284.26,2405.38,2676.27,599.75,579.69,3.57,0000 0000 0000 0000 000000
2018-08-30 12:02:54,1.82,2.93,1.00,29.19,32.67,35.12,13.65,50.71,1009.78,2001.99,2258.17,2389.05,2656.45,600.14,580.04,3.62,0000 0000 0000 0000 000000
2018-08-30 12:07:55,1.81,3.02,1.00,29.19,32.68,35.14,13.63,50.88,1009.78,2001.97,2232.29,2372.79,2636.67,600.15,580.05,3.68,0000 0000 0000 0000 000000
2018-08-30 12:12:56,1.83,3.11,1.00,29.20,32.70,35.14,13.67,51.09,1009.78,2001.91,2206.50,2356.74,2617.15,600.34,580.17,3.73,0000 0000 0000 0000 000000
2018-08-30 12:17:58,1.85,3.20,1.00,29.20,32.70,35.14,13.59,51.27,1009.78,2001.81,2180.48,2340.42,2597.50,600.09,579.98,3.78,0000 0000 0000 0000 000000
2018-08-30 12:22:59,1.87,3.29,1.00,29.20,32.71,35.16,13.57,51.34,1009.79,2001.46,2154.74,2324.08,2577.83,599.87,579.78,3.83,0000 0000 0000 0000 000000
2018-08-30 12:28:01,1.89,3.39,1.10,29.20,32.72,35.16,13.58,51.47,1009.79,2001.15,2129.06,2307.77,2558.29,599.63,579.53,3.88,0000 0000 0000 0000 000000
2018-08-30 12:33:02,1.88,3.48,2.00,29.20,32.72,35.17,13.56,51.71,1009.78,2001.05,2104.13,2291.71,2539.15,599.52,579.36,3.93,0000 0000 0000 0000 000000
2018-08-30 12:38:04,1.80,3.58,2.00,29.20,32.73,35.18,13.56,51.83,1009.78,2001.02,2080.74,2276.57,2521.06,599.69,579.59,3.98,0000 0000 0000 0000 000000
2018-08-30 12:43:05,1.77,3.67,2.00,29.22,32.75,35.18,13.66,52.00,1009.78,2001.00,2058.28,2262.00,2503.78,600.17,579.96,4.03,0000 0000 0000 0000 000000
2018-08-30 12:48:06,1.77,3.76,2.00,29.22,32.75,35.19,13.56,52.28,1009.78,2001.00,2036.34,2247.59,2486.76,599.72,579.58,4.08,0000 0000 0000 0000 000000
2018-08-30 12:53:07,1.79,3.84,2.00,29.22,32.75,35.19,13.64,52.46,1009.77,2001.00,2014.18,2233.42,2469.67,600.24,580.01,4.13,0000 0000 0000 0000 000000
2018-08-30 12:58:09,1.84,3.94,2.00,29.22,32.77,35.20,13.65,52.61,1009.71,2000.99,1991.94,2218.90,2452.42,600.09,579.89,4.18,0000 0000 0000 0000 000000
2018-08-30 13:03:10,1.84,4.03,2.00,29.23,32.77,35.21,13.65,52.81,1009.50,2000.98,1970.10,2204.43,2435.36,600.09,579.72,4.23,0000 0000 0000 0000 000000
2018-08-30 13:08:11,1.87,4.12,2.00,29.25,32.77,35.21,13.68,53.22,1009.35,2000.91,1948.24,2190.02,2418.41,600.24,579.83,4.28,0000 0000 0000 0000 000000
2018-08-30 13:13:13,1.90,4.21,2.00,29.25,32.78,35.22,13.62,53.42,1009.31,2000.55,1925.81,2175.32,2401.05,600.01,579.54,4.33,0000 0000 0000 0000 000000
2018-08-30 13:18:14,2.01,4.32,2.00,29.25,32.80,35.23,13.56,53.82,1009.31,2000.39,1902.66,2160.34,2383.20,599.87,579.40,4.38,0000 0000 0000 0000 000000
2018-08-30 13:23:15,2.12,4.42,2.00,29.25,32.80,35.24,13.55,53.87,1009.32,2000.08,1878.60,2144.76,2364.94,599.95,579.57,4.43,0000 0000 0000 0000 000000
2018-08-30 13:28:16,2.17,4.53,2.00,29.25,32.80,35.24,13.63,54.31,1009.36,2000.02,1854.49,2129.11,2346.48,600.14,579.71,4.48,0000 0000 0000 0000 000000
2018-08-30 13:33:18,2.20,4.64,2.00,29.25,32.80,35.25,13.65,54.44,1009.31,2000.01,1830.50,2113.48,2328.00,599.80,579.33,4.53,0000 0000 0000 0000 000000
2018-08-30 13:38:19,2.20,4.75,2.00,29.25,32.82,35.25,13.55,54.72,1009.32,2000.00,1806.88,2098.12,2309.80,599.68,579.19,4.58,0000 0000 0000 0000 000000
2018-08-30 13:43:20,2.19,4.86,2.00,29.25,32.82,35.26,13.75,55.71,1009.33,2000.00,1783.85,2083.01,2292.00,600.58,580.07,4.63,0000 0000 0000 0000 000000
2018-08-30 13:48:22,2.25,4.97,2.00,29.25,32.82,35.26,13.68,56.08,1009.31,2000.00,1760.75,2067.73,2274.11,600.17,579.65,4.68,0000 0000 0000 0000 000000
2018-08-30 13:53:23,2.27,5.08,2.00,29.26,32.82,35.26,13.76,56.42,1009.32,1999.98,1737.71,2052.53,2256.24,600.30,579.81,4.73,0000 0000 0000 0000 000000
2018-08-30 13:58:24,2.28,5.20,2.00,29.25,32.82,35.27,13.66,56.63,1009.31,1999.94,1714.98,2037.52,2238.46,600.18,579.63,4.78,0000 0000 0000 0000 000000
2018-08-30 14:03:26,2.31,5.32,2.00,29.25,32.83,35.27,13.64,56.92,1009.31,1999.87,1692.40,2022.50,2220.84,599.99,579.53,4.83,0000 0000 0000 0000 000000
2018-08-30 14:08:27,2.29,5.43,2.00,29.25,32.83,35.28,13.67,57.14,1009.31,1999.78,1670.47,2007.62,2203.45,600.09,579.62,4.88,0000 0000 0000 0000 000000
2018-08-30 14:13:28,2.25,5.55,2.00,29.25,32.85,35.28,13.66,57.52,1009.30,1999.55,1649.16,1992.98,2186.35,599.71,579.12,4.93,0000 0000 0000 0000 000000
2018-08-30 14:18:29,2.24,5.66,2.00,29.25,32.85,35.29,13.66,57.74,1009.30,1999.14,1628.27,1978.65,2169.59,600.02,579.60,4.98,0000 0000 0000 0000 000000
2018-08-30 14:23:30,2.26,5.77,2.00,29.25,32.85,35.29,13.69,58.11,1009.32,1999.08,1608.12,1964.46,2153.08,600.04,579.56,5.03,0000 0000 0000 0000 000000
2018-08-30 14:28:32,2.22,5.88,2.00,29.25,32.85,35.30,13.73,58.30,1009.32,1999.02,1588.87,1950.57,2137.00,600.15,579.67,5.08,0000 0000 0000 0000 000000
2018-08-30 14:33:33,2.20,6.00,2.00,29.25,32.85,35.30,13.74,58.52,1009.43,1999.00,1570.10,1937.05,2121.41,600.03,579.65,5.13,0000 0000 0000 0000 000000
2018-08-30 14:38:35,2.13,6.10,2.00,29.25,32.85,35.30,13.75,58.67,1009.33,1999.00,1552.12,1923.94,2106.51,600.03,579.53,5.18,0000 0000 0000 0000 000000
2018-08-30 14:43:36,2.08,6.21,2.00,29.25,32.85,35.30,13.61,58.82,1009.30,1999.00,1535.14,1911.41,2092.03,599.69,579.32,5.23,0000 0000 0000 0000 000000
2018-08-30 14:48:38,2.04,6.31,2.00,29.25,32.85,35.32,13.72,59.19,1009.30,1999.00,1518.81,1899.16,2077.93,599.90,579.34,5.28,0000 0000 0000 0000 000000
2018-08-30 14:53:39,2.06,6.41,2.00,29.25,32.85,35.32,13.67,59.41,1009.29,1999.00,1502.73,1886.99,2064.03,599.80,579.21,5.33,0000 0000 0000 0000 000000
2018-08-30 14:58:40,2.09,6.52,2.00,29.23,32.85,35.32,13.69,59.50,1009.29,1999.00,1487.03,1874.47,2049.87,599.88,579.43,5.38,0000 0000 0000 0000 000000
2018-08-30 15:03:42,2.11,6.62,2.00,29.22,32.85,35.31,13.71,59.67,1009.29,1999.00,1471.74,1861.79,2035.62,599.87,579.50,5.43,0000 0000 0000 0000 000000
2018-08-30 15:08:43,2.14,6.73,2.00,29.22,32.85,35.31,13.78,59.90,1009.29,1998.99,1456.37,1849.27,2021.20,600.02,579.60,5.48,0000 0000 0000 0000 000000
2018-08-30 15:13:44,2.61,6.85,2.00,29.22,32.85,35.32,13.73,60.08,1009.29,1998.99,1439.12,1835.30,2005.35,600.04,579.65,5.53,0000 0000 0000 0000 000000
2018-08-30 15:18:46,2.37,6.98,2.00,29.22,32.85,35.32,13.73,59.96,1009.27,1998.96,1421.29,1820.66,1988.90,600.25,579.69,5.58,0000 0000 0000 0000 000000
2018-08-30 15:23:47,2.21,7.10,2.00,29.22,32.85,35.32,13.63,60.15,1009.15,1998.95,1406.16,1808.04,1974.68,599.92,579.48,5.63,0000 0000 0000 0000 000000
2018-08-30 15:28:49,2.19,7.21,2.00,29.22,32.85,35.33,13.69,60.32,1008.84,1998.84,1391.41,1795.58,1960.52,599.71,579.04,5.68,0000 0000 0000 0000 000000
2018-08-30 15:33:50,2.18,7.32,2.00,29.22,32.85,35.33,13.75,60.52,1008.83,1998.71,1376.94,1783.47,1946.64,599.86,579.16,5.73,0000 0000 0000 0000 000000
2018-08-30 15:38:51,2.16,7.42,2.00,29.22,32.85,35.34,13.66,60.60,1008.81,1998.82,1362.99,1771.67,1933.18,599.69,579.00,5.78,0000 0000 0000 0000 000000
2018-08-30 15:43:52,2.09,7.53,2.00,29.22,32.85,35.32,13.66,60.63,1008.82,1998.56,1349.45,1759.98,1920.04,599.96,579.31,5.84,0000 0000 0000 0000 000000
2018-08-30 15:48:54,2.05,7.64,2.00,29.22,32.85,35.32,13.67,60.68,1008.82,1998.36,1336.56,1748.59,1907.26,599.92,579.21,5.89,0000 0000 0000 0000 000000
2018-08-30 15:53:55,2.05,7.74,2.00,29.22,32.85,35.33,13.68,60.94,1008.82,1998.20,1323.95,1737.48,1894.75,600.12,579.40,5.94,0000 0000 0000 0000 000000
2018-08-30 15:58:56,2.07,7.84,2.00,29.23,32.85,35.32,13.75,61.03,1008.88,1998.25,1311.67,1726.60,1882.28,600.07,579.52,5.99,0000 0000 0000 0000 000000
2018-08-30 16:03:58,2.04,7.95,2.00,29.23,32.85,35.32,13.67,61.00,1008.93,1998.24,1299.70,1715.77,1869.96,600.06,579.42,6.04,0000 0000 0000 0000 000000
2018-08-30 16:08:59,2.00,8.05,2.00,29.23,32.85,35.31,13.71,61.27,1009.16,1998.12,1288.08,1705.07,1858.00,599.77,579.27,6.09,0000 0000 0000 0000 000000
2018-08-30 16:14:00,2.00,8.15,2.00,29.23,32.85,35.31,13.71,61.48,1009.23,1998.06,1276.75,1694.53,1846.24,599.99,579.53,6.14,0000 0000 0000 0000 000000
2018-08-30 16:19:02,2.02,8.25,2.00,29.25,32.85,35.31,13.74,61.62,1009.28,1998.07,1265.54,1684.10,1834.56,600.00,579.49,6.19,0000 0000 0000 0000 000000
2018-08-30 16:24:03,2.00,8.35,2.00,29.25,32.85,35.31,13.69,61.63,1009.22,1998.07,1254.54,1673.78,1822.92,599.96,579.39,6.24,0000 0000 0000 0000 000000
2018-08-30 16:29:04,1.99,8.45,2.00,29.25,32.85,35.30,13.68,61.68,1009.15,1998.08,1243.84,1663.59,1811.44,599.69,579.14,6.29,0000 0000 0000 0000 000000